x

East Dellwood (46207) Wave Buoy

12:00pm - Sat 19th Apr 2014 All times are PDT. -7 hours from GMT.

  • Sig Wave height 17.7ft
  • Peak Period 11s
  • Wind
    29mph, 36mph gusts
  • Sea Temp 47°f
  • Air Temp 48°f
  • Sea Pressure 994.1mb
  • East Dellwood
  • East Dellwood

More Historic Weather Station data

Upgrade to MSW Pro to gain access to the past 30 days of data for over 8000 Wavebouys and Weather Stations around the globe.

Join Pro

Comparision Forecast

View Surf forecast
   
Sat 04/19 12:00pm 17.5ft 11s 29 36 mph 994.1mb 47f 48f
11:00am 19.5ft 11s 29 36 mph 993.5mb 47f 48f
10:00am 24.5ft 11s 31 38 mph 993.2mb 47f 48f
9:00am 24.5ft 11s 36 47 mph 993.1mb 47f 47f
8:00am 25.5ft 12s 40 49 mph 993.4mb 47f 47f
7:00am 22.5ft 11s 40 54 mph 993.5mb 47f 47f
6:00am 22ft 11s 43 54 mph 993.7mb 47f 47f
5:00am 23.5ft 11s 40 54 mph 994.5mb 47f 47f
4:00am 21ft 10s 45 56 mph 994.9mb 48f 48f
3:00am  -   -  40
mph
996.2mb 48f 48f
2:00am 19.5ft 9s 40 54 mph 997.8mb 48f 48f
1:00am 16.5ft 8s 40 51 mph 998.3mb 48f 48f
12:00am 14ft 8s 40 49 mph 999.9mb 48f 48f
Fri 04/18 11:00pm 13ft 7s 40 51 mph 1001.5mb 48f 48f
10:00pm 11ft 7s 38 51 mph 1002.9mb 48f 48f
9:00pm 11ft 7s 36 43 mph 1004.7mb 48f 47f
8:00pm 9.5ft 6s 34 40 mph 1006.6mb 48f 46f
7:00pm 9ft 10s 29 38 mph 1008mb 48f 48f
6:00pm 8ft 12s 29 38 mph 1008.8mb 48f 48f
5:00pm 7.5ft 10s 25 29 mph 1010.4mb 48f 48f
4:00pm 7.5ft 10s 22 27 mph 1011.8mb 48f 48f
3:00pm 8ft 13s 20 25 mph 1012.4mb 48f 48f
2:00pm 8.5ft 10s 18 20 mph 1013.1mb 48f 48f
1:00pm 8.5ft 10s 18 22 mph 1013.5mb 48f 47f
12:00pm 8ft 10s 16 20 mph 1014mb 48f 47f
11:00am 9.5ft 10s 13 16 mph 1014mb 48f 46f
10:00am 10ft 10s 9 13 mph 1014mb 48f 46f
9:00am 11ft 10s 9 11 mph 1014.2mb 48f 46f
8:00am 9ft 9s 4 7 mph 1014.1mb 47f 44f
7:00am 9.5ft 10s 7 11 mph 1013.8mb 47f 44f
6:00am 9.5ft 11s 7 9 mph 1013.5mb 47f 45f
5:00am 9ft 11s 2 7 mph 1013mb 47f 45f
4:00am 8.5ft 11s 9 11 mph 1012.8mb 47f 45f
3:00am 8ft 11s 11 13 mph 1012.7mb 47f 44f
2:00am 9ft 11s 7 9 mph 1012.6mb 48f 45f
1:00am 9ft 12s 11 13 mph 1012.5mb 48f 44f
12:00am 9ft 11s 18 22 mph 1012.1mb 48f 46f
Thu 04/17 11:00pm 10ft 11s 13 18 mph 1012.2mb 48f 47f
10:00pm 11ft 10s 13 18 mph 1011.9mb 48f 46f
9:00pm 12ft 10s 18 22 mph 1011.4mb 48f 46f
8:00pm 11.5ft 10s 18 20 mph 1010.9mb 48f 47f
7:00pm 11ft 11s 18 22 mph 1010.6mb 48f 47f
6:00pm 11ft 10s 18 22 mph 1010.2mb 48f 47f
5:00pm 10ft 9s 18 22 mph 1009.7mb 48f 47f
4:00pm 9ft 11s 18 20 mph 1009.3mb 48f 47f
3:00pm 9ft 9s 16 20 mph 1008.8mb 48f 47f
2:00pm 8.5ft 10s 16 20 mph 1008.3mb 48f 47f
1:00pm 8ft 11s 16 20 mph 1007.7mb 48f 47f
12:00pm 9ft 10s 18 20 mph 1007mb 47f 47f
11:00am 9ft 9s 13 18 mph 1006.4mb 47f 47f
10:00am 9.5ft 8s 16 22 mph 1005.8mb 47f 46f
9:00am 10ft 11s 18 22 mph 1005.2mb 47f 46f
8:00am 10ft 10s 20 25 mph 1004.5mb 47f 47f
7:00am 10.5ft 7s 20 22 mph 1003.8mb 47f 47f
6:00am 10ft 10s 20 25 mph 1002.9mb 48f 47f
5:00am 11ft 10s 20 27 mph 1001.8mb 48f 47f
4:00am 11ft 11s 22 29 mph 1000.8mb 48f 47f
3:00am 11ft 11s 25 29 mph 999.6mb 48f 47f
2:00am 11ft 7s 27 31 mph 998.2mb 48f 48f
1:00am 11ft 11s 29 34 mph 998.3mb 48f 49f
12:00am 10.5ft 6s 29 36 mph 999mb 48f 49f
Wed 04/16 11:00pm 9ft 6s 31 38 mph 1000mb 47f 49f
10:00pm 8ft 12s 27 34 mph 1001.5mb 47f 48f
9:00pm 8.5ft 12s 25 31 mph 1002.5mb 47f 49f
8:00pm 8ft 12s 25 31 mph 1003.2mb 47f 48f
7:00pm 7.5ft 10s 22 29 mph 1004.7mb 48f 48f
6:00pm 8ft 12s 20 27 mph 1005.9mb 48f 48f
5:00pm 8ft 12s 20 22 mph 1007mb 48f 48f
4:00pm 8ft 11s 18 20 mph 1007.6mb 48f 47f
3:00pm 7.5ft 11s 18 22 mph 1008.1mb 48f 47f
2:00pm 7.5ft 12s 16 18 mph 1008.4mb 48f 47f
1:00pm 7ft 13s 16 18 mph 1008.3mb 48f 47f
12:00pm 7.5ft 12s 13 16 mph 1009mb 48f 47f
11:00am 6.5ft 12s 16 18 mph 1008.8mb 47f 47f
10:00am 7ft 12s 13 18 mph 1008.8mb 47f 47f
9:00am 7.5ft 13s 13 16 mph 1008.7mb 47f 47f
8:00am 7ft 13s 11 13 mph 1008.7mb 47f 47f
7:00am 8ft 11s 11 13 mph 1009.1mb 47f 47f
6:00am 7.5ft 12s 11 13 mph 1008.8mb 47f 47f
5:00am 7ft 12s 13 16 mph 1008.7mb 47f 48f
4:00am 7ft 12s 16 18 mph 1009.2mb 47f 48f
3:00am 7ft 13s 13 18 mph 1009.6mb 47f 48f
2:00am 7.5ft 14s 11 16 mph 1010.5mb 47f 47f
1:00am 8ft 13s 9 11 mph 1011mb 47f 47f
12:00am 8ft 13s 9
mph
1011.5mb 47f 47f
Tue 04/15 11:00pm 7ft 8s 20 27 mph 1011.7mb 47f 47f
10:00pm 6ft 8s 22 29 mph 1012.2mb 47f 47f
9:00pm 6.5ft 8s 20 25 mph 1013.2mb 47f 46f